NOAA NWS Hourly Roundups by Site

Regional Weather Roundup for State College, PA

To Select Another Site Choose from List

Select Site:  

000
ASUS41 KCTP 161810
RWRCTP

REGIONAL WEATHER ROUNDUP
NATIONAL WEATHER SERVICE STATE COLLEGE PA
100 PM EST SUN FEB 16 2020

Note: "fair" indicates few or no clouds below 12,000 feet with no
significant weather and/or obstructions to visibility.

* = STATION THAT DOES NOT REPORT PRECIPITATION /E.G. RAIN...SNOW...ETC/
    THUNDER OR FOG.

PAZ002>004-007>009-013>016-020>023-029>032-161900-
WESTERN PENNSYLVANIA

CITY           SKY/WX    TMP DP  RH WIND       PRES   REMARKS
ERIE           CLOUDY    35  29  78 W8        30.06F
MEADVILLE      CLOUDY    36  26  67 W10       30.03F
FRANKLIN       CLOUDY    36  27  69 SW10      30.03F
NEW CASTLE     CLOUDY    39  28  64 SW7       30.06F
BEAVER COUNTY  CLOUDY    37  27  65 W3        30.06
BUTLER         LGT RAIN  37  26  64 SW8       30.06F
PITTSBURGH INT CLOUDY    40  24  53 W8        30.06F
PITTSBURGH     CLOUDY    41  24  51 W9        30.06F
INDIANA*       CLOUDY    41  25  52 W9        30.09F
LATROBE        PTSUNNY   45  25  45 SW17      30.06F
WASHINGTON CO* CLOUDY    43  26  51 W9        30.08F
$$

PAZ004>006-010>012-017>019-024>028-033>037-041-042-045-046-049>053-161900-
CENTRAL PENNSYLVANIA

CITY           SKY/WX    TMP DP  RH WIND       PRES   REMARKS
BRADFORD       CLOUDY    34  24  67 SW9       29.99F
ST MARYS       CLOUDY    32  28  86 W8        30.05
DUBOIS         CLOUDY    34  25  69 W9        30.02F
CLEARFIELD     CLOUDY    36  26  67 CALM      30.04F
JOHNSTOWN      CLOUDY    40  22  48 W10       30.01F
SOMERSET       CLOUDY    43  25  49 SW13      30.03F
ALTOONA        CLOUDY    48  24  39 SW10      30.03F
STATE COLLEGE  CLOUDY    37  21  52 CALM      30.06F
REEDSVILLE     CLOUDY    36  19  51 CALM      30.07F
WELLSBORO      NOT AVBL
WILLIAMSPORT   CLOUDY    33  18  53 CALM      30.09F
SELINSGROVE    CLOUDY    36  21  54 S6        30.11F
FT INDIANTOWN  CLOUDY    34  19  54 W5        30.12F
CAPITAL CITY   FAIR      39  21  48 N3        30.12F
HARRISBURG     CLOUDY    39  22  50 CALM      30.11F
YORK           CLOUDY    40  21  46 NW5       30.11F
$$

PAZ038>040-043-044-047-048-054-055-060>062-067>071-161900-
EASTERN PENNSYLVANIA

CITY           SKY/WX    TMP DP  RH WIND       PRES   REMARKS
TOWANDA        MOCLDY    39  25  56 SW9       30.06F
SCRANTON       CLOUDY    37  18  46 SW9       30.06F
MOUNT POCONO   CLOUDY    33  20  58 W13       30.02F
HAZLETON       NOT AVBL
LEHIGHTON      NOT AVBL
ALLENTOWN      PTSUNNY   41  21  44 W8        30.12F
QN CITY/ALNTWN FAIR      37  25  60 SW5       30.13F
QUAKERTOWN*    MOCLDY    43  23  45 CALM      30.11F
PERKASIE*      NOT AVBL
DOYLESTOWN     PTSUNNY   42  22  44 VRB6      30.11F
READING        FAIR      40  22  48 W6        30.11F
LANCASTER      CLOUDY    41  22  46 CALM      30.11F
COATESVILLE    FAIR      41  25  52 S6        30.11F
WEST CHESTER   NOT AVBL
POTTSTOWN      FAIR      42  23  46 VRB3      30.13F
BLUE BELL      PTSUNNY   44  25  47 SW6       30.13F
NORTH PHILA    FAIR      45  27  49 SW9       30.15F
PHILADELPHIA   PTSUNNY   43  24  47 W6        30.14F
$$



 

View Past Reports for State College, PA.

Products Courtesy of NOAA-NWS
NWS Information Parsing Script by Ken True at Saratoga Weather - Script by SE Lincoln Weather.